Time,TemperatureF,DewpointF,PressureIn,WindDirection,WindDirectionDegrees,WindSpeedMPH,WindSpeedGustMPH,Humidity,HourlyPrecipIn,Conditions,Clouds,dailyrainin,SoftwareType,DateUTC
2013-08-03 00:05:00,66.2,60.2,29.96,NE,38,4.0,4.0,81,0.00,,,0.00,Wunderground v.1.15,2013-08-03 05:05:00,
2013-08-03 00:15:00,66.3,59.9,29.97,East,80,4.0,7.0,80,0.00,,,0.00,Wunderground v.1.15,2013-08-03 05:15:00,
2013-08-03 00:25:00,66.3,59.9,29.97,NE,42,5.0,5.0,80,0.00,,,0.00,Wunderground v.1.15,2013-08-03 05:25:00,
2013-08-03 00:30:00,66.3,59.9,29.97,NNE,14,5.0,5.0,80,0.00,,,0.00,Wunderground v.1.15,2013-08-03 05:30:00,
2013-08-03 00:40:00,66.3,59.9,29.98,NE,43,5.0,5.0,80,0.00,,,0.00,Wunderground v.1.15,2013-08-03 05:40:00,
2013-08-03 00:50:00,66.2,59.5,29.98,NE,54,4.0,5.0,79,0.00,,,0.00,Wunderground v.1.15,2013-08-03 05:50:00,
2013-08-03 00:55:00,66.2,59.5,29.98,NE,48,4.0,5.0,79,0.00,,,0.00,Wunderground v.1.15,2013-08-03 05:55:00,
2013-08-03 01:05:00,66.1,59.4,29.98,ENE,61,4.0,4.0,79,0.00,,,0.00,Wunderground v.1.15,2013-08-03 06:05:00,
2013-08-03 01:15:00,66.1,59.4,29.98,NE,53,4.0,11.0,79,0.00,,,0.00,Wunderground v.1.15,2013-08-03 06:15:00,
2013-08-03 01:25:00,66.0,58.9,29.98,ENE,65,4.0,4.0,78,0.00,,,0.00,Wunderground v.1.15,2013-08-03 06:25:00,
2013-08-03 01:30:00,66.0,58.9,29.98,East,98,4.0,5.0,78,0.00,,,0.00,Wunderground v.1.15,2013-08-03 06:30:00,
2013-08-03 01:40:00,66.0,58.9,29.98,ENE,71,4.0,4.0,78,0.00,,,0.00,Wunderground v.1.15,2013-08-03 06:40:00,
2013-08-03 01:50:00,66.0,58.6,29.97,East,80,4.0,4.0,77,0.00,,,0.00,Wunderground v.1.15,2013-08-03 06:50:00,
2013-08-03 01:55:00,66.0,58.6,29.97,NE,44,5.0,5.0,77,0.00,,,0.00,Wunderground v.1.15,2013-08-03 06:55:00,
2013-08-03 02:05:00,65.8,58.0,29.97,ENE,57,5.0,5.0,76,0.00,,,0.00,Wunderground v.1.15,2013-08-03 07:05:00,
2013-08-03 02:15:00,65.6,58.2,29.97,East,84,5.0,7.0,77,0.00,,,0.00,Wunderground v.1.15,2013-08-03 07:15:00,
2013-08-03 02:25:00,65.5,58.1,29.97,NNE,27,5.0,7.0,77,0.00,,,0.00,Wunderground v.1.15,2013-08-03 07:25:00,
2013-08-03 02:30:00,65.6,58.2,29.97,East,86,5.0,5.0,77,0.00,,,0.00,Wunderground v.1.15,2013-08-03 07:30:00,
2013-08-03 02:40:00,65.5,58.1,29.97,ENE,71,4.0,4.0,77,0.00,,,0.00,Wunderground v.1.15,2013-08-03 07:40:00,
2013-08-03 02:50:00,65.4,58.0,29.97,ENE,68,4.0,5.0,77,0.00,,,0.00,Wunderground v.1.15,2013-08-03 07:50:00,
2013-08-03 02:59:00,65.4,58.0,29.98,NE,53,5.0,5.0,77,0.00,,,0.00,Wunderground v.1.15,2013-08-03 07:59:00,
2013-08-03 03:05:00,65.4,58.0,29.97,East,86,5.0,6.0,77,0.00,,,0.00,Wunderground v.1.15,2013-08-03 08:05:00,
2013-08-03 03:15:00,65.3,57.9,29.98,NNE,27,5.0,6.0,77,0.00,,,0.00,Wunderground v.1.15,2013-08-03 08:15:00,
2013-08-03 03:20:00,65.3,58.3,29.98,ENE,63,4.0,4.0,78,0.00,,,0.00,Wunderground v.1.15,2013-08-03 08:20:00,
2013-08-03 03:30:00,65.1,58.1,29.98,NE,42,2.0,5.0,78,0.00,,,0.00,Wunderground v.1.15,2013-08-03 08:30:00,
2013-08-03 03:35:00,65.1,58.1,29.99,NE,45,3.0,5.0,78,0.00,,,0.00,Wunderground v.1.15,2013-08-03 08:35:00,
2013-08-03 03:45:00,65.1,58.1,29.99,NNE,27,4.0,7.0,78,0.00,,,0.00,Wunderground v.1.15,2013-08-03 08:45:00,
2013-08-03 03:55:00,65.2,58.5,29.99,NNE,30,4.0,4.0,79,0.00,,,0.00,Wunderground v.1.15,2013-08-03 08:55:00,
2013-08-03 04:00:00,65.2,58.5,29.99,NE,51,4.0,8.0,79,0.00,,,0.00,Wunderground v.1.15,2013-08-03 09:00:00,
2013-08-03 04:05:00,65.2,58.5,29.99,NE,35,4.0,8.0,79,0.00,,,0.00,Wunderground v.1.15,2013-08-03 09:05:00,
2013-08-03 04:15:00,65.1,58.4,29.99,NNE,15,6.0,6.0,79,0.00,,,0.00,Wunderground v.1.15,2013-08-03 09:15:00,
2013-08-03 04:25:00,65.0,58.7,29.99,NNE,26,5.0,5.0,80,0.00,,,0.00,Wunderground v.1.15,2013-08-03 09:25:00,
2013-08-03 04:30:00,64.9,58.6,30.00,NE,38,5.0,6.0,80,0.00,,,0.00,Wunderground v.1.15,2013-08-03 09:30:00,
2013-08-03 04:35:00,64.9,58.6,29.99,NNE,13,5.0,6.0,80,0.00,,,0.00,Wunderground v.1.15,2013-08-03 09:35:00,
2013-08-03 04:45:00,64.9,58.6,29.99,NNE,26,6.0,7.0,80,0.00,,,0.00,Wunderground v.1.15,2013-08-03 09:45:00,
2013-08-03 04:55:00,64.8,58.8,29.99,North,5,6.0,6.0,81,0.00,,,0.00,Wunderground v.1.15,2013-08-03 09:55:00,
2013-08-03 05:00:00,64.7,58.7,29.99,NNE,14,5.0,7.0,81,0.00,,,0.00,Wunderground v.1.15,2013-08-03 10:00:00,
2013-08-03 05:05:00,64.7,58.7,29.99,NE,36,5.0,7.0,81,0.00,,,0.00,Wunderground v.1.15,2013-08-03 10:05:00,
2013-08-03 05:15:00,64.6,58.3,29.98,NNE,30,5.0,5.0,80,0.00,,,0.00,Wunderground v.1.15,2013-08-03 10:15:00,
2013-08-03 05:20:00,64.6,58.3,29.99,NE,40,5.0,9.0,80,0.00,,,0.00,Wunderground v.1.15,2013-08-03 10:20:00,
2013-08-03 05:25:00,64.7,58.0,29.99,NE,38,6.0,9.0,79,0.00,,,0.00,Wunderground v.1.15,2013-08-03 10:25:00,
2013-08-03 05:35:00,64.7,57.7,29.99,NNE,32,4.0,5.0,78,0.00,,,0.00,Wunderground v.1.15,2013-08-03 10:35:00,
2013-08-03 05:45:00,64.5,57.1,29.99,NE,40,4.0,4.0,77,0.00,,,0.00,Wunderground v.1.15,2013-08-03 10:45:00,
2013-08-03 05:50:00,64.4,57.0,29.99,ENE,63,3.0,7.0,77,0.00,,,0.00,Wunderground v.1.15,2013-08-03 10:50:00,
2013-08-03 06:00:00,64.3,57.3,29.99,ENE,69,4.0,4.0,78,0.00,,,0.00,Wunderground v.1.15,2013-08-03 11:00:00,
2013-08-03 06:05:00,64.0,57.4,29.99,ENE,71,4.0,4.0,79,0.00,,,0.00,Wunderground v.1.15,2013-08-03 11:05:00,
2013-08-03 06:15:00,63.9,57.6,30.00,ENE,64,3.0,3.0,80,0.00,,,0.00,Wunderground v.1.15,2013-08-03 11:15:00,
2013-08-03 06:25:00,63.6,57.3,30.01,East,88,3.0,4.0,80,0.00,,,0.00,Wunderground v.1.15,2013-08-03 11:25:00,
2013-08-03 06:35:00,63.4,57.5,30.01,NNE,18,3.0,4.0,81,0.00,,,0.00,Wunderground v.1.15,2013-08-03 11:35:00,
2013-08-03 06:40:00,63.4,57.8,30.01,NNE,17,3.0,4.0,82,0.00,,,0.00,Wunderground v.1.15,2013-08-03 11:40:00,
2013-08-03 06:50:00,63.4,57.8,30.02,NE,46,3.0,3.0,82,0.00,,,0.00,Wunderground v.1.15,2013-08-03 11:50:00,
2013-08-03 06:55:00,63.4,57.8,30.02,NE,39,3.0,4.0,82,0.00,,,0.00,Wunderground v.1.15,2013-08-03 11:55:00,
2013-08-03 07:05:00,63.5,57.9,30.02,ENE,59,4.0,5.0,82,0.00,,,0.00,Wunderground v.1.15,2013-08-03 12:05:00,
2013-08-03 07:15:00,63.7,58.1,30.02,North,5,5.0,11.0,82,0.00,,,0.00,Wunderground v.1.15,2013-08-03 12:15:00,
2013-08-03 07:20:00,63.8,58.2,30.03,NE,34,5.0,5.0,82,0.00,,,0.00,Wunderground v.1.15,2013-08-03 12:20:00,
2013-08-03 07:30:00,64.2,58.6,30.03,NNE,23,5.0,5.0,82,0.00,,,0.00,Wunderground v.1.15,2013-08-03 12:30:00,
2013-08-03 07:35:00,64.3,58.7,30.04,NE,42,4.0,7.0,82,0.00,,,0.00,Wunderground v.1.15,2013-08-03 12:35:00,
2013-08-03 07:45:00,64.6,58.6,30.04,NE,35,5.0,8.0,81,0.00,,,0.00,Wunderground v.1.15,2013-08-03 12:45:00,
2013-08-03 07:55:00,64.8,58.8,30.03,NE,38,5.0,6.0,81,0.00,,,0.00,Wunderground v.1.15,2013-08-03 12:55:00,
2013-08-03 08:00:00,64.8,58.8,30.03,North,5,5.0,5.0,81,0.00,,,0.00,Wunderground v.1.15,2013-08-03 13:00:00,
2013-08-03 08:10:00,65.1,58.8,30.04,East,79,5.0,8.0,80,0.00,,,0.00,Wunderground v.1.15,2013-08-03 13:10:00,
2013-08-03 08:20:00,65.3,59.0,30.05,NE,40,5.0,5.0,80,0.00,,,0.00,Wunderground v.1.15,2013-08-03 13:20:00,
2013-08-03 08:30:00,65.3,58.6,30.05,NNE,32,5.0,5.0,79,0.00,,,0.00,Wunderground v.1.15,2013-08-03 13:30:00,
2013-08-03 08:35:00,65.4,59.1,30.05,ENE,59,5.0,5.0,80,0.00,,,0.00,Wunderground v.1.15,2013-08-03 13:35:00,
2013-08-03 08:44:00,65.8,59.1,30.06,NE,51,4.0,4.0,79,0.00,,,0.00,Wunderground v.1.15,2013-08-03 13:44:00,
2013-08-03 08:50:00,66.0,59.3,30.06,NNE,21,3.0,5.0,79,0.00,,,0.00,Wunderground v.1.15,2013-08-03 13:50:00,
2013-08-03 09:00:00,67.1,60.4,30.06,ENE,77,5.0,5.0,79,0.00,,,0.00,Wunderground v.1.15,2013-08-03 14:00:00,
2013-08-03 09:05:00,67.6,60.1,30.06,East,82,5.0,5.0,77,0.00,,,0.00,Wunderground v.1.15,2013-08-03 14:05:00,
2013-08-03 09:15:00,68.6,59.6,30.07,East,80,5.0,10.0,73,0.00,,,0.00,Wunderground v.1.15,2013-08-03 14:15:00,
2013-08-03 09:25:00,69.0,59.6,30.07,East,82,7.0,9.0,72,0.00,,,0.00,Wunderground v.1.15,2013-08-03 14:25:00,
2013-08-03 09:35:00,70.1,60.3,30.07,East,88,7.0,11.0,71,0.00,,,0.00,Wunderground v.1.15,2013-08-03 14:35:00,
2013-08-03 09:40:00,70.6,60.3,30.07,East,90,7.0,10.0,70,0.00,,,0.00,Wunderground v.1.15,2013-08-03 14:40:00,
2013-08-03 09:50:00,71.3,61.0,30.08,East,81,7.0,14.0,70,0.00,,,0.00,Wunderground v.1.15,2013-08-03 14:50:00,
2013-08-03 09:59:00,71.4,61.1,30.08,NE,35,7.0,7.0,70,0.00,,,0.00,Wunderground v.1.15,2013-08-03 14:59:00,
2013-08-03 10:05:00,71.4,60.3,30.08,NNE,19,6.0,7.0,68,0.00,,,0.00,Wunderground v.1.15,2013-08-03 15:05:00,
2013-08-03 10:15:00,71.9,61.2,30.08,NNE,20,6.0,6.0,69,0.00,,,0.00,Wunderground v.1.15,2013-08-03 15:15:00,
2013-08-03 10:25:00,71.6,60.9,30.08,East,82,6.0,7.0,69,0.00,,,0.01,Wunderground v.1.15,2013-08-03 15:25:00,
2013-08-03 10:30:00,71.9,60.8,30.08,NNE,22,7.0,7.0,68,0.16,,,0.02,Wunderground v.1.15,2013-08-03 15:30:00,
2013-08-03 10:40:00,72.3,60.7,30.08,East,89,6.0,10.0,67,0.05,,,0.02,Wunderground v.1.15,2013-08-03 15:40:00,
2013-08-03 10:50:00,72.9,60.0,30.09,East,93,8.0,14.0,64,0.00,,,0.02,Wunderground v.1.15,2013-08-03 15:50:00,
2013-08-03 10:55:00,73.4,60.5,30.09,North,360,7.0,14.0,64,0.00,,,0.02,Wunderground v.1.15,2013-08-03 15:55:00,
2013-08-03 11:00:00,73.9,61.4,30.09,NE,49,6.0,6.0,65,0.00,,,0.02,Wunderground v.1.15,2013-08-03 16:00:00,
2013-08-03 11:05:00,73.9,61.0,30.09,East,90,5.0,7.0,64,0.00,,,0.02,Wunderground v.1.15,2013-08-03 16:05:00,
2013-08-03 11:15:00,74.4,61.4,30.10,ENE,67,5.0,5.0,64,0.00,,,0.02,Wunderground v.1.15,2013-08-03 16:15:00,
2013-08-03 11:20:00,74.6,60.3,30.10,NE,51,5.0,5.0,61,0.00,,,0.02,Wunderground v.1.15,2013-08-03 16:20:00,
2013-08-03 11:30:00,75.1,61.2,30.10,East,85,5.0,5.0,62,0.00,,,0.02,Wunderground v.1.15,2013-08-03 16:30:00,
2013-08-03 11:35:00,74.8,60.4,30.10,East,93,6.0,6.0,61,0.00,,,0.02,Wunderground v.1.15,2013-08-03 16:35:00,
2013-08-03 11:45:00,74.6,60.3,30.10,East,88,5.0,7.0,61,0.00,,,0.02,Wunderground v.1.15,2013-08-03 16:45:00,
2013-08-03 11:55:00,74.9,60.5,30.10,ENE,75,7.0,8.0,61,0.00,,,0.02,Wunderground v.1.15,2013-08-03 16:55:00,
2013-08-03 12:05:00,75.1,59.8,30.10,East,84,4.0,7.0,59,0.00,,,0.02,Wunderground v.1.15,2013-08-03 17:05:00,
2013-08-03 12:15:00,74.9,60.1,30.10,East,83,4.0,4.0,60,0.00,,,0.02,Wunderground v.1.15,2013-08-03 17:15:00,
2013-08-03 12:20:00,74.9,61.0,30.10,ENE,72,4.0,4.0,62,0.00,,,0.02,Wunderground v.1.15,2013-08-03 17:20:00,
2013-08-03 12:30:00,74.8,61.4,30.11,ENE,78,3.0,3.0,63,0.00,,,0.02,Wunderground v.1.15,2013-08-03 17:30:00,
2013-08-03 12:40:00,75.1,60.3,30.11,NNE,13,3.0,3.0,60,0.00,,,0.02,Wunderground v.1.15,2013-08-03 17:40:00,
2013-08-03 12:50:00,75.8,61.4,30.11,East,80,3.0,6.0,61,0.00,,,0.02,Wunderground v.1.15,2013-08-03 17:50:00,
2013-08-03 12:55:00,75.8,60.9,30.11,ENE,69,3.0,6.0,60,0.00,,,0.02,Wunderground v.1.15,2013-08-03 17:55:00,
2013-08-03 13:05:00,76.3,60.4,30.10,NE,40,4.0,4.0,58,0.00,,,0.02,Wunderground v.1.15,2013-08-03 18:05:00,
2013-08-03 13:15:00,76.3,60.9,30.10,East,91,5.0,6.0,59,0.00,,,0.02,Wunderground v.1.15,2013-08-03 18:15:00,
2013-08-03 13:20:00,76.4,60.5,30.10,ENE,69,4.0,4.0,58,0.00,,,0.02,Wunderground v.1.15,2013-08-03 18:20:00,
2013-08-03 13:30:00,76.1,60.2,30.10,NNE,30,4.0,4.0,58,0.00,,,0.02,Wunderground v.1.15,2013-08-03 18:30:00,
2013-08-03 13:40:00,75.9,60.1,30.09,NNE,26,5.0,5.0,58,0.00,,,0.02,Wunderground v.1.15,2013-08-03 18:40:00,
2013-08-03 13:45:00,75.8,60.0,30.10,NE,34,5.0,7.0,58,0.00,,,0.02,Wunderground v.1.15,2013-08-03 18:45:00,
2013-08-03 13:55:00,75.4,60.5,30.10,ENE,71,4.0,5.0,60,0.00,,,0.02,Wunderground v.1.15,2013-08-03 18:55:00,
2013-08-03 14:05:00,75.8,61.4,30.10,East,80,4.0,7.0,61,0.00,,,0.02,Wunderground v.1.15,2013-08-03 19:05:00,
2013-08-03 14:15:00,75.6,61.2,30.09,ENE,75,5.0,5.0,61,0.00,,,0.02,Wunderground v.1.15,2013-08-03 19:15:00,
2013-08-03 14:20:00,75.5,61.1,30.09,East,83,3.0,7.0,61,0.00,,,0.02,Wunderground v.1.15,2013-08-03 19:20:00,
2013-08-03 14:30:00,75.4,61.0,30.10,NNE,22,3.0,3.0,61,0.00,,,0.02,Wunderground v.1.15,2013-08-03 19:30:00,
2013-08-03 14:40:00,75.2,60.4,30.09,ENE,70,4.0,5.0,60,0.00,,,0.02,Wunderground v.1.15,2013-08-03 19:40:00,
2013-08-03 14:45:00,75.0,61.1,30.09,ENE,71,3.0,5.0,62,0.00,,,0.02,Wunderground v.1.15,2013-08-03 19:45:00,
2013-08-03 14:55:00,74.6,60.3,30.09,East,85,3.0,3.0,61,0.00,,,0.02,Wunderground v.1.15,2013-08-03 19:55:00,
2013-08-03 15:00:00,74.6,60.7,30.09,ENE,72,2.0,2.0,62,0.00,,,0.02,Wunderground v.1.15,2013-08-03 20:00:00,
2013-08-03 15:05:00,74.5,60.2,30.08,ENE,72,2.0,3.0,61,0.00,,,0.02,Wunderground v.1.15,2013-08-03 20:05:00,
2013-08-03 15:15:00,74.6,60.3,30.08,East,84,3.0,6.0,61,0.00,,,0.02,Wunderground v.1.15,2013-08-03 20:15:00,
2013-08-03 15:20:00,74.6,60.3,30.08,East,81,3.0,3.0,61,0.00,,,0.02,Wunderground v.1.15,2013-08-03 20:20:00,
2013-08-03 15:30:00,74.7,59.9,30.08,North,5,3.0,3.0,60,0.00,,,0.02,Wunderground v.1.15,2013-08-03 20:30:00,
2013-08-03 15:40:00,75.0,61.5,30.09,NNE,21,2.0,2.0,63,0.00,,,0.02,Wunderground v.1.15,2013-08-03 20:40:00,
2013-08-03 15:45:00,75.1,61.2,30.09,NNE,22,2.0,2.0,62,0.00,,,0.02,Wunderground v.1.15,2013-08-03 20:45:00,
2013-08-03 15:55:00,75.3,61.4,30.08,NE,55,3.0,4.0,62,0.00,,,0.02,Wunderground v.1.15,2013-08-03 20:55:00,
2013-08-03 16:00:00,75.1,61.2,30.07,ENE,66,3.0,4.0,62,0.00,,,0.02,Wunderground v.1.15,2013-08-03 21:00:00,
2013-08-03 16:05:00,75.2,61.7,30.08,ENE,77,3.0,4.0,63,0.00,,,0.02,Wunderground v.1.15,2013-08-03 21:05:00,
2013-08-03 16:15:00,74.9,61.0,30.07,ENE,76,3.0,5.0,62,0.00,,,0.02,Wunderground v.1.15,2013-08-03 21:15:00,
2013-08-03 16:20:00,74.8,61.4,30.06,East,82,4.0,4.0,63,0.00,,,0.02,Wunderground v.1.15,2013-08-03 21:20:00,
2013-08-03 16:30:00,75.1,61.6,30.06,ESE,108,4.0,4.0,63,0.00,,,0.02,Wunderground v.1.15,2013-08-03 21:30:00,
2013-08-03 16:40:00,76.3,61.4,30.06,ENE,68,3.0,3.0,60,0.00,,,0.02,Wunderground v.1.15,2013-08-03 21:40:00,
2013-08-03 16:45:00,76.2,61.8,30.06,NE,41,3.0,4.0,61,0.00,,,0.02,Wunderground v.1.15,2013-08-03 21:45:00,
2013-08-03 16:55:00,76.0,61.6,30.06,NNE,31,3.0,5.0,61,0.00,,,0.02,Wunderground v.1.15,2013-08-03 21:55:00,
2013-08-03 17:05:00,75.8,61.4,30.05,ESE,107,5.0,5.0,61,0.00,,,0.02,Wunderground v.1.15,2013-08-03 22:05:00,
2013-08-03 17:14:00,75.3,61.4,30.06,ENE,73,5.0,7.0,62,0.00,,,0.02,Wunderground v.1.15,2013-08-03 22:14:00,
2013-08-03 17:20:00,75.3,60.9,30.07,NNE,22,4.0,7.0,61,0.00,,,0.02,Wunderground v.1.15,2013-08-03 22:20:00,
2013-08-03 17:30:00,75.2,60.8,30.06,NE,40,4.0,4.0,61,0.00,,,0.02,Wunderground v.1.15,2013-08-03 22:30:00,
2013-08-03 17:40:00,74.9,61.0,30.04,East,88,6.0,6.0,62,0.00,,,0.02,Wunderground v.1.15,2013-08-03 22:40:00,
2013-08-03 17:50:00,74.8,60.9,30.03,East,83,6.0,6.0,62,0.00,,,0.02,Wunderground v.1.15,2013-08-03 22:50:00,
2013-08-03 17:55:00,74.7,60.8,30.04,ENE,78,5.0,6.0,62,0.00,,,0.02,Wunderground v.1.15,2013-08-03 22:55:00,
2013-08-03 18:05:00,74.6,60.7,30.04,ENE,63,4.0,5.0,62,0.00,,,0.02,Wunderground v.1.15,2013-08-03 23:05:00,
2013-08-03 18:15:00,74.6,60.7,30.04,NE,37,4.0,4.0,62,0.00,,,0.02,Wunderground v.1.15,2013-08-03 23:15:00,
2013-08-03 18:20:00,74.6,60.3,30.05,NNE,24,4.0,7.0,61,0.00,,,0.02,Wunderground v.1.15,2013-08-03 23:20:00,
2013-08-03 18:30:00,74.5,59.2,30.06,NNE,15,5.0,5.0,59,0.00,,,0.02,Wunderground v.1.15,2013-08-03 23:30:00,
2013-08-03 18:40:00,74.6,60.7,30.07,NNE,16,4.0,6.0,62,0.00,,,0.02,Wunderground v.1.15,2013-08-03 23:40:00,
2013-08-03 18:50:00,75.1,60.7,30.06,NE,49,4.0,5.0,61,0.00,,,0.02,Wunderground v.1.15,2013-08-03 23:50:00,
2013-08-03 19:00:00,75.4,60.1,30.06,NNE,26,4.0,7.0,59,0.00,,,0.02,Wunderground v.1.15,2013-08-04 00:00:00,
2013-08-03 19:05:00,75.2,59.4,30.06,ENE,66,5.0,7.0,58,0.00,,,0.02,Wunderground v.1.15,2013-08-04 00:05:00,
2013-08-03 19:15:00,75.0,60.2,30.07,NE,44,3.0,6.0,60,0.00,,,0.02,Wunderground v.1.15,2013-08-04 00:15:00,
2013-08-03 19:25:00,74.6,59.8,30.07,NNE,28,4.0,6.0,60,0.00,,,0.02,Wunderground v.1.15,2013-08-04 00:25:00,
2013-08-03 19:30:00,74.4,59.6,30.07,NE,42,4.0,5.0,60,0.00,,,0.02,Wunderground v.1.15,2013-08-04 00:30:00,
2013-08-03 19:40:00,73.9,60.1,30.07,NE,35,4.0,4.0,62,0.00,,,0.02,Wunderground v.1.15,2013-08-04 00:40:00,
2013-08-03 19:50:00,73.3,59.5,30.07,NNE,23,5.0,5.0,62,0.00,,,0.02,Wunderground v.1.15,2013-08-04 00:50:00,
2013-08-03 20:00:00,72.8,59.0,30.08,ENE,57,3.0,3.0,62,0.00,,,0.02,Wunderground v.1.15,2013-08-04 01:00:00,
2013-08-03 20:05:00,72.6,59.3,30.07,NE,46,3.0,3.0,63,0.00,,,0.02,Wunderground v.1.15,2013-08-04 01:05:00,
2013-08-03 20:15:00,72.2,59.3,30.08,NE,38,4.0,4.0,64,0.00,,,0.02,Wunderground v.1.15,2013-08-04 01:15:00,
2013-08-03 20:25:00,71.9,59.5,30.08,NE,40,2.0,3.0,65,0.00,,,0.02,Wunderground v.1.15,2013-08-04 01:25:00,
2013-08-03 20:35:00,71.5,59.1,30.08,NE,40,2.0,2.0,65,0.00,,,0.02,Wunderground v.1.15,2013-08-04 01:35:00,
2013-08-03 20:45:00,71.1,59.2,30.09,NE,40,2.0,2.0,66,0.00,,,0.02,Wunderground v.1.15,2013-08-04 01:45:00,
2013-08-03 20:54:00,70.8,59.3,30.09,NE,40,2.0,2.0,67,0.00,,,0.02,Wunderground v.1.15,2013-08-04 01:54:00,
2013-08-03 21:00:00,70.6,59.1,30.09,NE,40,2.0,2.0,67,0.00,,,0.02,Wunderground v.1.15,2013-08-04 02:00:00,
2013-08-03 21:05:00,70.4,58.9,30.09,NE,40,3.0,3.0,67,0.00,,,0.02,Wunderground v.1.15,2013-08-04 02:05:00,
2013-08-03 21:15:00,70.1,59.0,30.10,NE,34,3.0,3.0,68,0.00,,,0.02,Wunderground v.1.15,2013-08-04 02:15:00,
2013-08-03 21:20:00,70.0,59.0,30.10,NE,34,3.0,3.0,68,0.00,,,0.02,Wunderground v.1.15,2013-08-04 02:20:00,
2013-08-03 21:30:00,69.8,58.3,30.11,NE,37,3.0,3.0,67,0.00,,,0.02,Wunderground v.1.15,2013-08-04 02:30:00,
2013-08-03 21:35:00,69.7,58.3,30.11,NE,34,3.0,4.0,67,0.00,,,0.02,Wunderground v.1.15,2013-08-04 02:35:00,
2013-08-03 21:45:00,69.6,58.2,30.11,NE,39,3.0,4.0,67,0.00,,,0.02,Wunderground v.1.15,2013-08-04 02:45:00,
2013-08-03 21:55:00,69.4,58.0,30.11,NE,39,3.0,4.0,67,0.00,,,0.02,Wunderground v.1.15,2013-08-04 02:55:00,
2013-08-03 22:00:00,69.3,57.9,30.12,NE,43,3.0,3.0,67,0.00,,,0.02,Wunderground v.1.15,2013-08-04 03:00:00,
2013-08-03 22:05:00,69.2,57.8,30.12,NE,41,3.0,3.0,67,0.00,,,0.02,Wunderground v.1.15,2013-08-04 03:05:00,
2013-08-03 22:15:00,69.0,58.0,30.12,NE,41,2.0,2.0,68,0.00,,,0.02,Wunderground v.1.15,2013-08-04 03:15:00,
2013-08-03 22:20:00,68.9,57.9,30.12,NE,42,3.0,3.0,68,0.00,,,0.02,Wunderground v.1.15,2013-08-04 03:20:00,
2013-08-03 22:30:00,68.6,57.6,30.13,NE,49,3.0,5.0,68,0.00,,,0.02,Wunderground v.1.15,2013-08-04 03:30:00,
2013-08-03 22:39:00,68.4,57.8,30.12,NE,49,2.0,4.0,69,0.00,,,0.02,Wunderground v.1.15,2013-08-04 03:39:00,
2013-08-03 22:50:00,68.3,57.7,30.13,NE,46,3.0,3.0,69,0.00,,,0.02,Wunderground v.1.15,2013-08-04 03:50:00,
2013-08-03 23:00:00,68.1,57.5,30.12,NE,46,2.0,2.0,69,0.00,,,0.02,Wunderground v.1.15,2013-08-04 04:00:00,
2013-08-03 23:05:00,68.0,57.8,30.12,NE,46,2.0,2.0,70,0.00,,,0.02,Wunderground v.1.15,2013-08-04 04:05:00,
2013-08-03 23:10:00,67.8,57.7,30.12,NE,46,2.0,2.0,70,0.00,,,0.02,Wunderground v.1.15,2013-08-04 04:10:00,
2013-08-03 23:15:00,67.7,58.0,30.12,NE,46,3.0,5.0,71,0.00,,,0.02,Wunderground v.1.15,2013-08-04 04:15:00,
2013-08-03 23:20:00,67.6,57.9,30.12,NE,44,3.0,3.0,71,0.00,,,0.02,Wunderground v.1.15,2013-08-04 04:20:00,
2013-08-03 23:25:00,67.5,57.8,30.12,NE,43,3.0,3.0,71,0.00,,,0.02,Wunderground v.1.15,2013-08-04 04:25:00,
2013-08-03 23:30:00,67.4,57.7,30.12,NE,44,3.0,3.0,71,0.00,,,0.02,Wunderground v.1.15,2013-08-04 04:30:00,
2013-08-03 23:35:00,67.4,57.7,30.13,NE,43,2.0,3.0,71,0.00,,,0.02,Wunderground v.1.15,2013-08-04 04:35:00,
2013-08-03 23:45:00,67.0,57.7,30.13,NE,44,2.0,2.0,72,0.00,,,0.02,Wunderground v.1.15,2013-08-04 04:45:00,
2013-08-03 23:55:00,66.7,57.8,30.13,NE,44,1.0,3.0,73,0.00,,,0.02,Wunderground v.1.15,2013-08-04 04:55:00,